Oneill, NE

2:37 AM CST on January 22, 2017 (GMT -0600)
The O'Neill Municipal-Baker

Weather History for KONL - January, 2014

Change the Weather History Date:

Friday, January 24, 2014

  Actual Average Record
Temperature  
Mean Temperature 34 °F -  
Max Temperature 51 °F 34 °F 70 °F (1981)
Min Temperature 18 °F 14 °F -21 °F (1961)
Degree Days  
Heating Degree Days 30    
Moisture  
Dew Point 21 °F    
Average Humidity 49    
Maximum Humidity 66    
Minimum Humidity 36    
Precipitation  
Precipitation 0.00 in - - ()
Sea Level Pressure  
Sea Level Pressure 29.90 in    
Wind  
Wind Speed 18 mph (WNW)    
Max Wind Speed 34 mph    
Max Gust Speed 45 mph    
Visibility 10 miles    
Events      
Averages and records for this station are not official NWS values.
T = Trace of Precipitation, MM = Missing Value Source: NWS Daily Summary

Daily Weather History Graph

Daily Weather History Graph

Search for Another Location

Airport or City:

Trip Planner

Search our weather history database for the weather conditions in past years. The results will help you decide how hot, cold, wet, or windy it might be!

Date:

Astronomy

Jan. 24, 2014 Rise Set
Actual Time 7:55 AM CST 5:38 PM CST
Civil Twilight 7:25 AM CST 6:08 PM CST
Nautical Twilight 6:51 AM CST 6:42 PM CST
Astronomical Twilight 6:17 AM CST 7:16 PM CST
Moon 1:23 AM CST (1/24) 11:59 AM CST (1/24)
Length of Visible Light 10h 43m
Length of Day
9h 42m
Last Quarter, 44% of the Moon is Illuminated
Jan 24
Last Quarter
Jan 30
New
Feb 6
First Quarter
Feb 14
Full
Feb 22
Last Quarter

Hourly Weather History & Observations

Time (CST) Temp. Windchill Dew Point Humidity Pressure Visibility Wind Dir Wind Speed Gust Speed Precip Events Conditions
12:15 AM 18.5 °F 4.3 °F 4.5 °F 54% 30.19 in 10.0 mi SW 15.0 mph 20.7 mph N/A   Clear
12:35 AM 19.6 °F 5.2 °F 6.1 °F 56% 30.17 in 10.0 mi SW 16.1 mph 20.7 mph N/A   Clear
12:55 AM 19.6 °F 5.2 °F 6.8 °F 58% 30.14 in 10.0 mi SW 16.1 mph - N/A   Clear
1:15 AM 21.4 °F 7.1 °F 7.5 °F 55% 30.13 in 10.0 mi SW 17.3 mph 23.0 mph N/A   Clear
1:35 AM 22.1 °F 8.9 °F 7.5 °F 54% 30.12 in 10.0 mi SW 15.0 mph 23.0 mph N/A   Clear
1:55 AM 23.0 °F 9.6 °F 7.7 °F 52% 30.10 in 10.0 mi SW 16.1 mph 19.6 mph N/A   Clear
2:15 AM 23.9 °F 11.2 °F 7.5 °F 50% 30.10 in 10.0 mi SW 15.0 mph - N/A   Clear
2:35 AM 24.6 °F 11.7 °F 7.7 °F 49% 30.08 in 10.0 mi SW 16.1 mph - N/A   Clear
2:55 AM 25.3 °F 11.8 °F 7.9 °F 48% 30.07 in 10.0 mi SW 18.4 mph 24.2 mph N/A   Clear
3:15 AM 25.0 °F 11.3 °F 7.7 °F 48% 30.05 in 10.0 mi SW 18.4 mph 24.2 mph N/A   Clear
3:35 AM 24.8 °F 10.7 °F 7.5 °F 48% 30.03 in 10.0 mi WSW 19.6 mph 26.5 mph N/A   Clear
3:55 AM 24.4 °F 10.6 °F 7.7 °F 49% 30.02 in 10.0 mi WSW 18.4 mph - N/A   Clear
4:15 AM 24.6 °F 11.3 °F 7.7 °F 49% 30.01 in 10.0 mi WSW 17.3 mph 20.7 mph N/A   Clear
4:35 AM 25.3 °F 13.1 °F 7.5 °F 47% 30.00 in 10.0 mi WSW 15.0 mph - N/A   Clear
4:55 AM 26.8 °F 14.1 °F 7.7 °F 45% 30.00 in 10.0 mi WSW 17.3 mph 24.2 mph N/A   Clear
5:15 AM 27.5 °F 15.0 °F 7.5 °F 43% 29.98 in 10.0 mi WSW 17.3 mph - N/A   Clear
5:35 AM 27.9 °F 16.3 °F 7.7 °F 43% 29.98 in 10.0 mi WSW 15.0 mph - N/A   Mostly Cloudy
5:55 AM 28.2 °F 16.8 °F 7.3 °F 41% 29.97 in 10.0 mi WSW 15.0 mph 20.7 mph N/A   Scattered Clouds
6:15 AM 28.0 °F 17.5 °F 7.3 °F 42% 29.96 in 10.0 mi WSW 12.7 mph - N/A   Scattered Clouds
6:35 AM 29.3 °F 19.1 °F 6.8 °F 39% 29.96 in 10.0 mi West 12.7 mph - N/A   Clear
6:55 AM 29.7 °F 19.6 °F 6.8 °F 38% 29.96 in 10.0 mi West 12.7 mph 20.7 mph N/A   Clear
7:15 AM 28.9 °F 18.2 °F 7.3 °F 40% 29.95 in 10.0 mi West 13.8 mph - N/A   Clear
7:35 AM 29.7 °F 19.6 °F 7.5 °F 39% 29.95 in 10.0 mi West 12.7 mph - N/A   Scattered Clouds
7:55 AM 30.2 °F 19.8 °F 8.2 °F 40% 29.95 in 10.0 mi West 13.8 mph - N/A   Scattered Clouds
8:15 AM 31.3 °F 21.6 °F 9.1 °F 40% 29.93 in 10.0 mi West 12.7 mph - N/A   Clear
8:35 AM 33.6 °F 25.0 °F 10.2 °F 38% 29.93 in 10.0 mi West 11.5 mph 17.3 mph N/A   Mostly Cloudy
8:55 AM 36.9 °F 27.5 °F 12.0 °F 36% 29.93 in 10.0 mi West 16.1 mph - N/A   Overcast
9:15 AM 38.5 °F 29.6 °F 13.8 °F 37% 29.95 in 10.0 mi WNW 16.1 mph 23.0 mph N/A   Overcast
9:35 AM 40.1 °F 32.0 °F 15.6 °F 37% 29.94 in 10.0 mi West 15.0 mph 19.6 mph N/A   Overcast
9:55 AM 41.9 °F 34.6 °F 19.8 °F 41% 29.93 in 10.0 mi West 13.8 mph - N/A   Overcast
10:15 AM 43.0 °F 35.4 °F 21.4 °F 42% 29.93 in 10.0 mi WNW 16.1 mph - N/A   Overcast
10:35 AM 44.6 °F 37.2 °F 25.7 °F 48% 29.92 in 10.0 mi WNW 17.3 mph 26.5 mph N/A   Overcast
10:55 AM 46.2 °F 38.3 °F 26.6 °F 46% 29.92 in 10.0 mi NW 21.9 mph 29.9 mph N/A   Mostly Cloudy
11:15 AM 48.0 °F - 26.6 °F 43% 29.92 in 10.0 mi NW 29.9 mph 38.0 mph N/A   Clear
11:35 AM 48.2 °F - 26.1 °F 42% 29.91 in 10.0 mi NW 28.8 mph 38.0 mph N/A   Clear
11:55 AM 48.4 °F - 26.2 °F 42% 29.90 in 10.0 mi NW 25.3 mph 32.2 mph N/A   Clear
12:15 PM 48.2 °F - 25.7 °F 42% 29.90 in 10.0 mi NW 29.9 mph 34.5 mph N/A   Mostly Cloudy
12:35 PM 48.9 °F - 25.7 °F 40% 29.88 in 10.0 mi NW 19.6 mph 31.1 mph N/A   Mostly Cloudy
12:55 PM 49.1 °F - 25.7 °F 40% 29.87 in 10.0 mi WNW 24.2 mph 32.2 mph N/A   Scattered Clouds
1:15 PM 49.3 °F - 25.3 °F 39% 29.85 in 10.0 mi WNW 23.0 mph 31.1 mph N/A   Mostly Cloudy
1:35 PM 48.9 °F - 25.7 °F 40% 29.84 in 10.0 mi WNW 25.3 mph 32.2 mph N/A   Overcast
1:55 PM 48.9 °F - 26.2 °F 41% 29.84 in 10.0 mi NW 18.4 mph 29.9 mph N/A   Overcast
2:15 PM 49.1 °F - 26.6 °F 42% 29.83 in 10.0 mi NW 26.5 mph 34.5 mph N/A   Overcast
2:35 PM 49.6 °F - 28.0 °F 43% 29.82 in 10.0 mi NW 27.6 mph 38.0 mph N/A   Overcast
2:55 PM 50.0 °F - 28.0 °F 43% 29.81 in 10.0 mi NW 26.5 mph 33.4 mph N/A   Mostly Cloudy
3:15 PM 50.0 °F - 29.8 °F 46% 29.80 in 10.0 mi NW 23.0 mph 33.4 mph N/A   Overcast
3:35 PM 49.5 °F - 32.0 °F 51% 29.80 in 10.0 mi WNW 31.1 mph 38.0 mph N/A   Overcast
3:55 PM 48.7 °F - 33.1 °F 55% 29.79 in 10.0 mi WNW 23.0 mph 33.4 mph N/A   Overcast
4:15 PM 48.2 °F - 34.3 °F 59% 29.77 in 10.0 mi WNW 21.9 mph 31.1 mph N/A   Overcast
4:35 PM 48.4 °F - 34.7 °F 59% 29.76 in 10.0 mi West 19.6 mph - N/A   Mostly Cloudy
4:55 PM 48.4 °F - 35.4 °F 61% 29.75 in 10.0 mi West 16.1 mph 24.2 mph N/A   Scattered Clouds
5:15 PM 48.7 °F - 35.6 °F 60% 29.74 in 10.0 mi West 15.0 mph 21.9 mph N/A   Mostly Cloudy
5:35 PM 48.7 °F - 35.6 °F 60% 29.74 in 10.0 mi West 15.0 mph - N/A   Overcast
5:55 PM 49.1 °F - 35.6 °F 60% 29.74 in 10.0 mi West 16.1 mph 20.7 mph N/A   Overcast
6:15 PM 49.8 °F - 34.7 °F 56% 29.74 in 10.0 mi West 18.4 mph 24.2 mph N/A   Mostly Cloudy
6:35 PM 50.9 °F - 33.8 °F 52% 29.76 in 10.0 mi WNW 21.9 mph 29.9 mph N/A   Mostly Cloudy
6:55 PM 51.4 °F - 33.8 °F 51% 29.76 in 10.0 mi WNW 20.7 mph 31.1 mph N/A   Mostly Cloudy
7:15 PM 50.9 °F - 33.3 °F 51% 29.77 in 10.0 mi NW 27.6 mph 36.8 mph N/A   Overcast
7:35 PM 50.7 °F - 31.5 °F 48% 29.78 in 10.0 mi NW 34.5 mph 44.9 mph N/A   Overcast
7:55 PM 49.5 °F - 31.6 °F 50% 29.78 in 10.0 mi NW 19.6 mph 35.7 mph N/A   Overcast
8:15 PM 47.8 °F - 31.6 °F 53% 29.78 in 10.0 mi NW 24.2 mph 31.1 mph N/A   Scattered Clouds
8:35 PM 47.3 °F - 31.8 °F 55% 29.80 in 10.0 mi NW 21.9 mph 27.6 mph N/A   Scattered Clouds
8:55 PM 46.9 °F - 32.0 °F 56% 29.80 in 10.0 mi NW 23.0 mph 31.1 mph N/A   Mostly Cloudy
9:15 PM 46.0 °F 38.3 °F 32.0 °F 58% 29.80 in 10.0 mi NW 20.7 mph 32.2 mph N/A   Mostly Cloudy
9:35 PM 46.2 °F 36.8 °F 32.0 °F 58% 29.81 in 10.0 mi NW 31.1 mph 39.1 mph N/A   Mostly Cloudy
9:55 PM 45.9 °F 37.2 °F 32.0 °F 58% 29.82 in 10.0 mi NW 25.3 mph 39.1 mph N/A   Overcast
10:15 PM 45.5 °F 35.6 °F 32.2 °F 60% 29.83 in 10.0 mi NW 32.2 mph 40.3 mph N/A   Overcast
10:35 PM 44.6 °F 34.9 °F 32.2 °F 62% 29.84 in 10.0 mi NW 28.8 mph 40.3 mph N/A   Overcast
10:55 PM 43.7 °F 35.0 °F 32.2 °F 64% 29.84 in 10.0 mi NW 21.9 mph 34.5 mph N/A   Overcast
11:15 PM 43.2 °F 34.5 °F 32.0 °F 65% 29.85 in 10.0 mi NW 20.7 mph 27.6 mph N/A   Overcast
11:35 PM 43.2 °F 34.2 °F 32.0 °F 65% 29.86 in 10.0 mi NW 21.9 mph 35.7 mph N/A   Overcast
11:55 PM 42.8 °F 34.5 °F 32.0 °F 66% 29.87 in 10.0 mi NNW 18.4 mph 27.6 mph N/A   Overcast